[[{"header":{"parameterUnit":"m.s-1","parameterCategory":1,"la1":30.2991,"la2":30.254,"lo1":-89.0895,"lo2":-89.0444,"dy":0.0017,"dx":0.0017,"nx":28,"ny":28,"refTime":"2023-09-24T09:00:00:Z","depth":0,"parameterNumber":2,"parameterNumberName":"U-component_of_WINDS"},"data":[0,0,0,0,0,0,0,0,0,0,0,0,0,0,0,0,0,0,0,0,0,0,0,0,0,0,0,0,0,0,0,0,0,0,0,0,0,0,0,0,0,0,0,0,0,0,0,0,0,0,0,0,0,0,0,0,0,0,1.5373,1.5373,0,1.5372,1.5372,1.5372,1.5324,1.5323,1.5322,1.532,1.5319,1.532,1.5321,0,0,0,0,0,0,0,0,0,0,0,0,0,1.5331,1.5332,1.5373,1.5373,1.5373,1.5372,1.5372,1.5372,1.5324,1.5323,1.5321,1.532,1.5319,1.532,1.5321,0,0,0,0,0,0,0,0,0,0,0,0,0,1.5342,1.5333,1.5373,1.5349,1.5347,1.5372,1.5372,1.5372,1.5325,1.5323,1.5321,1.5319,1.5318,1.532,1.5322,1.537,0,0,1.5327,1.5328,0,0,0,0,0,0,0,0,1.5341,1.5343,1.5353,1.5351,1.5348,1.5346,1.5357,1.5371,1.5325,1.5333,1.532,1.5318,1.533,1.533,1.5334,1.537,1.537,1.5327,1.5328,1.5329,1.5329,0,0,0,0,0,0,0,1.5341,1.5343,1.5373,1.5353,1.535,1.5338,1.5337,1.5359,1.5342,1.5332,1.5329,1.5329,1.5328,1.5333,1.5334,1.537,1.5327,1.5328,1.533,1.533,1.544,1.5442,0,0,0,0,0,0,1.5343,1.5343,1.5373,1.5373,1.534,1.534,1.5339,1.5349,1.5342,1.5339,1.5331,1.5327,1.5331,1.5332,1.5334,1.5386,1.5329,1.533,1.5331,1.5438,1.5441,1.5443,0,0,0,0,0,0,1.5343,1.5346,1.5373,1.5357,1.5359,1.5343,1.5354,1.535,1.5354,1.5341,1.5337,1.5339,1.5329,1.5331,1.536,1.5386,1.5331,1.5333,1.5436,1.5439,1.5442,1.5494,0,0,0,0,0,0,1.5342,1.5347,1.5365,1.5358,1.536,1.54,1.5356,1.5351,1.5357,1.5352,1.5347,1.5344,1.5328,1.5358,1.5362,1.5387,1.5334,1.5434,1.5437,1.5441,1.549,1.5498,1.5505,0,0,0,0,0,1.534,1.5381,1.5367,1.537,1.5384,1.5402,1.5403,1.5384,1.536,1.5378,1.5368,1.5345,1.5383,1.5361,1.5365,1.5391,1.5432,1.5436,1.544,1.5486,1.5496,1.5505,0,0,0,0,0,0,1.5393,1.538,1.5364,1.5403,1.5404,1.5394,1.5416,1.5396,1.5403,1.5398,1.5374,1.5373,1.5405,1.5401,1.5378,1.5435,1.5403,1.5408,1.5436,1.5446,1.5453,1.5452,1.5335,0,0,0,0,0,1.5409,1.5426,1.5413,1.5449,1.545,1.5433,1.5441,1.5425,1.5425,1.5425,1.5418,1.5418,1.543,1.5438,1.5448,1.549,1.5486,1.5509,1.5517,1.5523,1.5527,1.5545,1.5554,1.5457,1.5457,1.5457,0,0,1.5443,1.5437,1.545,1.5459,1.5458,1.5474,1.5434,1.5454,1.5465,1.5428,1.5454,1.5449,1.5447,1.5481,1.5496,1.5479,1.5554,1.5529,1.5534,1.5535,1.5551,1.556,1.5568,1.546,1.5459,1.5459,0,0,1.5511,1.5511,1.5538,1.5537,1.5536,1.5524,1.553,1.5523,1.5517,1.5543,1.5515,1.5528,1.5549,1.5548,1.5551,1.5616,1.5593,1.562,1.566,1.5678,1.5685,1.5692,1.5712,1.572,1.5625,1.5625,1.5625,0,1.5553,1.5577,1.5555,1.5576,1.5579,1.5547,1.5573,1.5574,1.5576,1.5578,1.556,1.5584,1.5581,1.5612,1.5628,1.5632,1.5637,1.562,1.5686,1.5693,1.5698,1.5717,1.5725,1.5628,1.5628,1.5628,1.5627,0,1.5626,1.5643,1.5666,1.5667,1.5673,1.5697,1.5678,1.5687,1.5671,1.566,1.5685,1.568,1.5687,1.5694,1.568,1.5723,1.5712,1.5691,1.5657,1.5711,1.5728,1.5735,1.5633,1.5632,1.5631,1.563,0,0,1.5728,1.5715,1.5724,1.5722,1.5717,1.5729,1.575,1.5756,1.5763,1.5765,1.578,1.5798,1.5777,1.578,1.5764,1.578,1.5828,1.5756,1.5755,1.5767,1.5872,1.5886,1.5895,1.5814,1.5815,1.5816,1.5871,0,1.5791,1.5827,1.5807,1.5844,1.5857,1.5825,1.5843,1.5841,1.5832,1.5841,1.583,1.5842,1.5815,1.5816,1.583,1.5819,1.5848,1.5815,1.5825,1.5826,1.5824,1.5904,1.592,1.5972,1.5878,1.5879,1.588,0,1.587,1.5874,1.5912,1.5901,1.5906,1.5922,1.5924,1.5935,1.5931,1.5922,1.5924,1.5904,1.5922,1.5891,1.5914,1.5892,1.5895,1.589,1.5892,1.589,1.5854,1.5901,1.5988,1.5995,1.589,1.589,1.5889,0,1.5936,1.5951,1.5974,1.5975,1.5963,1.5975,1.5971,1.5965,1.5969,1.5971,1.5973,1.5978,1.598,1.5983,1.5964,1.5944,1.5989,1.5957,1.598,1.5981,1.599,1.5989,1.6075,1.5997,1.5997,1.5997,1.5996,0,1.6007,1.6031,1.6003,1.6018,1.6042,1.6019,1.6044,1.6037,1.6032,1.6043,1.6016,1.6027,1.6003,1.6011,1.5996,1.6016,1.6018,1.601,1.6005,1.6011,1.6011,1.6011,1.6005,1.5999,1.5998,1.5998,1.5997,0,1.6084,1.6067,1.609,1.6076,1.6074,1.6092,1.608,1.6092,1.608,1.6095,1.6097,1.6078,1.6086,1.6068,1.6074,1.6063,1.609,1.6082,1.6091,1.6087,1.6111,1.6108,1.6197,1.6206,1.6126,1.6126,1.6127,0,1.6129,1.6146,1.6134,1.6139,1.6136,1.6145,1.6148,1.6126,1.613,1.6125,1.6137,1.6143,1.6146,1.616,1.6146,1.6149,1.6139,1.617,1.6139,1.6143,1.6135,1.6133,1.6133,1.6175,1.6176,1.6177,1.6178,0,1.621,1.62,1.6205,1.6207,1.6211,1.6212,1.6211,1.6216,1.6192,1.6198,1.6205,1.6207,1.6212,1.6216,1.6217,1.6211,1.619,1.6188,1.6193,1.6197,1.6201,1.6196,1.6105,1.6185,1.6185,1.6184,1.6184,1.6183,1.627,1.6282,1.6274,1.628,1.6277,1.6275,1.6285,1.6273,1.6279,1.628,1.6267,1.6276,1.6269,1.6267,1.6263,1.6269,1.6255,1.6264,1.6265,1.6267,1.6269,1.6202,1.627,1.627,1.6269,1.6269,1.6269,0,1.6346,1.6339,1.6345,1.6342,1.6347,1.6326,1.6323,1.6328,1.6336,1.6332,1.6334,1.6341,1.6345,1.6331,1.6333,1.634,1.633,1.6341,1.6339,1.6337,1.6284,1.6277,1.6349,1.6349,1.6349,1.6349,1.6349,1.6349,1.6386,1.6404,1.6393,1.6408,1.6401,1.6409,1.6409,1.6407,1.6402,1.6411,1.6413,1.6405,1.6395,1.6396,1.6398,1.6394,1.6394,1.6408,1.64,1.635,1.6342,1.6334,1.6328,1.6409,1.6409,1.6453,1.6453,1.6454]},{"header":{"parameterUnit":"m.s-1","parameterCategory":1,"la1":30.2991,"la2":30.254,"lo1":-89.0895,"lo2":-89.0444,"dy":0.0017,"dx":0.0017,"nx":28,"ny":28,"refTime":"2023-09-24T09:00:00:Z","depth":0,"parameterNumber":3,"parameterNumberName":"V-component_of_WINDS"},"data":[0,0,0,0,0,0,0,0,0,0,0,0,0,0,0,0,0,0,0,0,0,0,0,0,0,0,0,0,0,0,0,0,0,0,0,0,0,0,0,0,0,0,0,0,0,0,0,0,0,0,0,0,0,0,0,0,0,0,2.1313,2.1313,0,2.1356,2.1357,2.1357,2.134,2.1339,2.1338,2.1337,2.1379,2.1381,2.1383,0,0,0,0,0,0,0,0,0,0,0,0,0,2.1209,2.1211,2.1312,2.1313,2.1314,2.1356,2.1357,2.1358,2.134,2.1339,2.1338,2.1336,2.1379,2.1381,2.1384,0,0,0,0,0,0,0,0,0,0,0,0,0,2.1254,2.1212,2.1312,2.131,2.131,2.1356,2.1357,2.1358,2.134,2.1339,2.1337,2.1336,2.1378,2.1381,2.1384,2.1434,0,0,2.1393,2.1395,0,0,0,0,0,0,0,0,2.1251,2.1258,2.131,2.131,2.1311,2.1341,2.1336,2.1383,2.1341,2.1329,2.1337,2.1335,2.1368,2.1372,2.1383,2.1436,2.1438,2.1394,2.1396,2.1397,2.1398,0,0,0,0,0,0,0,2.1248,2.1256,2.133,2.1311,2.1311,2.1306,2.131,2.1345,2.1356,2.133,2.1329,2.1334,2.1368,2.138,2.1384,2.1438,2.1394,2.1396,2.1398,2.14,2.1532,2.1533,0,0,0,0,0,0,2.1246,2.1253,2.1328,2.1331,2.1277,2.1309,2.1314,2.1333,2.1356,2.1358,2.1335,2.1333,2.1376,2.138,2.1385,2.1443,2.1397,2.14,2.1402,2.153,2.1532,2.1534,0,0,0,0,0,0,2.1243,2.1252,2.1327,2.1292,2.1301,2.1312,2.1334,2.1335,2.1347,2.136,2.1362,2.1346,2.1375,2.1381,2.1422,2.1445,2.1401,2.1404,2.1528,2.1531,2.1533,2.1561,0,0,0,0,0,0,2.1241,2.1252,2.1272,2.1293,2.1303,2.1363,2.1335,2.1337,2.1353,2.135,2.1371,2.1373,2.1374,2.1417,2.1425,2.1448,2.1407,2.1526,2.1529,2.1532,2.1558,2.1564,2.157,0,0,0,0,0,2.1237,2.1278,2.1273,2.1282,2.1328,2.1365,2.137,2.1372,2.1355,2.1374,2.1382,2.1372,2.1441,2.1421,2.143,2.1455,2.1525,2.1528,2.1532,2.1556,2.1563,2.157,0,0,0,0,0,0,2.126,2.1281,2.1275,2.1325,2.1343,2.1362,2.1386,2.138,2.1403,2.1399,2.1399,2.1404,2.1445,2.1454,2.1431,2.1503,2.148,2.1486,2.1495,2.1503,2.1508,2.1504,2.1409,0,0,0,0,0,2.127,2.1299,2.1316,2.1358,2.1367,2.1375,2.1391,2.139,2.1409,2.1416,2.1428,2.1445,2.147,2.1487,2.1512,2.156,2.1563,2.1581,2.1587,2.1591,2.1596,2.1619,2.1627,2.1546,2.1546,2.1546,0,0,2.1293,2.1308,2.1326,2.1363,2.1377,2.1405,2.1382,2.1413,2.1434,2.1421,2.146,2.1468,2.1488,2.1532,2.1552,2.1541,2.1619,2.1596,2.16,2.1601,2.1624,2.1631,2.1638,2.1548,2.1548,2.1548,0,0,2.1348,2.1363,2.1399,2.1413,2.1435,2.144,2.1448,2.1468,2.1473,2.1512,2.1502,2.1526,2.1571,2.1584,2.1597,2.1655,2.1646,2.1663,2.1692,2.1716,2.1722,2.1727,2.1746,2.1753,2.1668,2.1668,2.1668,0,2.1372,2.1416,2.1417,2.1449,2.1464,2.1455,2.1489,2.1503,2.1531,2.1541,2.1529,2.1583,2.1596,2.1642,2.1656,2.1667,2.1675,2.166,2.1721,2.1727,2.1732,2.175,2.1757,2.167,2.167,2.1669,2.1669,0,2.1444,2.1474,2.15,2.1527,2.1546,2.1579,2.1584,2.1602,2.16,2.1605,2.1644,2.1659,2.1685,2.1696,2.1694,2.1741,2.1733,2.1721,2.1698,2.1741,2.1758,2.1765,2.1672,2.1672,2.1671,2.1671,0,0,2.1514,2.1542,2.1551,2.1562,2.1585,2.1608,2.1639,2.1666,2.168,2.17,2.1725,2.1762,2.1751,2.1765,2.1764,2.1785,2.1827,2.177,2.177,2.1778,2.1878,2.1885,2.1893,2.1822,2.1823,2.1824,2.1875,0,2.1569,2.1626,2.1627,2.1678,2.1705,2.1695,2.1723,2.1739,2.1745,2.1767,2.1773,2.1799,2.1783,2.1791,2.1811,2.1818,2.1847,2.1815,2.1843,2.1844,2.1837,2.1902,2.1911,2.1958,2.1882,2.1883,2.1884,0,2.1641,2.1663,2.1716,2.1733,2.1745,2.1769,2.1792,2.1814,2.1831,2.1834,2.185,2.1846,2.1876,2.1853,2.1894,2.1872,2.1884,2.1889,2.1891,2.1892,2.1866,2.1903,2.1974,2.198,2.1895,2.1894,2.1893,0,2.1684,2.1727,2.1764,2.1774,2.1796,2.1813,2.1822,2.1838,2.1853,2.1873,2.1882,2.1905,2.1918,2.1935,2.1936,2.192,2.1977,2.1954,2.1978,2.1978,2.1989,2.1988,2.206,2.2,2.2,2.2,2.2,0,2.1744,2.1776,2.1783,2.1806,2.1841,2.1842,2.1877,2.1885,2.1899,2.1922,2.1916,2.1937,2.1938,2.196,2.1961,2.1993,2.1999,2.2001,2.2001,2.2001,2.2,2.2007,2.2003,2.2002,2.2001,2.2001,2.2001,0,2.1797,2.1803,2.1843,2.186,2.1865,2.189,2.1904,2.1924,2.193,2.1958,2.1965,2.1973,2.1998,2.2001,2.203,2.2031,2.2069,2.2066,2.2063,2.2062,2.2085,2.2082,2.2163,2.2172,2.2108,2.2108,2.2109,0,2.1834,2.1859,2.1879,2.1894,2.1904,2.1929,2.1944,2.1945,2.1961,2.1982,2.1999,2.2024,2.2043,2.2082,2.209,2.2111,2.2108,2.2135,2.2111,2.2109,2.2105,2.2103,2.2105,2.2138,2.2139,2.214,2.214,0,2.1899,2.19,2.1922,2.1945,2.1964,2.1982,2.1999,2.2011,2.2015,2.2032,2.2058,2.2073,2.2102,2.2125,2.2146,2.2155,2.2147,2.2148,2.2154,2.2153,2.215,2.215,2.2074,2.2146,2.2145,2.2145,2.2144,2.2144,2.1943,2.1964,2.1981,2.2005,2.2018,2.2034,2.2054,2.2061,2.2083,2.2107,2.2106,2.2134,2.2148,2.2176,2.2186,2.2206,2.2197,2.2207,2.2209,2.2211,2.2212,2.2148,2.221,2.221,2.221,2.221,2.221,0,2.2005,2.2015,2.2038,2.2062,2.2081,2.2074,2.2091,2.2107,2.2132,2.2146,2.2165,2.2193,2.2216,2.2225,2.2246,2.226,2.2257,2.2266,2.2264,2.2265,2.222,2.2211,2.2268,2.2268,2.2268,2.2268,2.2268,2.2268,2.204,2.2074,2.2077,2.2117,2.2126,2.2153,2.2164,2.2178,2.2189,2.2221,2.224,2.2246,2.2258,2.228,2.2299,2.2301,2.2308,2.2318,2.2318,2.2275,2.2269,2.2263,2.2255,2.232,2.232,2.2361,2.2362,2.2362]}]]